Regional Weather Roundup
Issued by NWS

Home | Current Version | Previous Version | Graphics & Text | Print | Product List | Glossary On
Versions: 1 2 3 4 5 6 7 8 9 10 11 12 13 14 15 16 17 18 19 20 21 22 23 24 25 26 27 28 29 30 31 32 33 34 35 36 37 38 39 40 41 42 43 44 45 46 47 48 49 50
000
ASUS43 KMPX 230411
RWRMN
WEATHER ROUNDUP FOR MINNESOTA
NATIONAL WEATHER SERVICE TWIN CITIES/CHANHASSEN MN
1000 PM CST SAT NOV 22 2014


NOTE: "FAIR" INDICATES FEW OR NO CLOUDS BELOW 12,000 FEET WITH NO
SIGNIFICANT WEATHER AND/OR OBSTRUCTIONS TO VISIBILITY. N/A MEANS
CURRENT SKY AND/OR WEATHER CONDITIONS ARE NOT AVAILABLE.

MNZ060>063-068>070-230500-
   Twin Cities Metro

CITY           SKY/WX    TMP DP  RH WIND       PRES   REMARKS
TWIN CITIES    CLOUDY    36  36 100 E13       29.53F FOG
ST PAUL        CLOUDY    37  37 100 SE7       29.56F FOG
CRYSTAL        FOG       38  37  97 SE9       29.52F VSB 1
BLAINE         CLOUDY    37  37 100 SE8       29.53F VSB 1/2
LAKEVILLE      CLOUDY    37  37 100 E5        29.53F FOG
EDEN PRAIRIE   CLOUDY    38  37  97 E10       29.51F FOG
SOUTH ST PAUL  FOG       37  37  97 SE3       29.55F VSB 1/2
LAKE ELMO      FOG       37  37 100 SE6       29.57F VSB 3/4
$$
MNZ001>005-007-008-013>017-022>024-027-028-230500-
   Northwest Minnesota

CITY           SKY/WX    TMP DP  RH WIND       PRES   REMARKS
BEMIDJI        CLOUDY    32  30  92 SE13      29.42F FOG     WCI  22
HALLOCK        CLOUDY    34  30  86 S12       29.36S WCI  25
ROSEAU         MOCLDY    37  30  75 SE9       29.36F
WARROAD        CLOUDY    36  32  87 SE6       29.38F
THIEF RVR FALL MOCLDY    36  30  80 S10       29.38F
CROOKSTON      MOCLDY    34  30  86 S12       29.39S WCI  25
FOSSTON        MOCLDY    32  28  86 SE12G18   29.38F WCI  23
DETROIT LAKES  CLOUDY    32  32 100 S14       29.41F FOG     WCI  22
MOORHEAD       CLOUDY    36  36 100 S14       29.40S FOG
PARK RAPIDS    CLOUDY    31  31 100 SE15      29.44F FOG     WCI  20
MAHNOMEN       CLOUDY    32  31  94 SE9       29.38F WCI  24
$$
MNZ006-009>011-018-025>026-230500-
   North Central Minnesota

CITY           SKY/WX    TMP DP  RH WIND       PRES   REMARKS
BAUDETTE       CLOUDY    35  30  82 SE8       29.40F WCI  29
FLAG ISLAND    CLOUDY    34  30  86 E10G18    29.39F WCI  26
INTL FALLS     CLOUDY    33  29  85 SE9       29.47F WCI  25
WASKISH        CLOUDY    36  30  80 E5        29.40F
BIG FORK       CLOUDY    34  28  80 SE6       29.46F FOG     WCI  29
LONGVILLE      CLOUDY    32  30  93 SE10      29.47R FOG     WCI  24
GRAND RAPIDS   CLOUDY    32  28  86 SE9       29.46F WCI  24
CRANE LAKE     MOCLDY    30  28  93 CALM      29.54F FOG
ORR            MOCLDY    30  27  86 SE6       29.47F FOG     WCI  24
COOK           CLOUDY    32  30  93 SE6       29.50F FOG     WCI  26
WALKER         CLOUDY    31  30  95 SE8G16    29.44F FOG     WCI  24
$$
MNZ012-019>021-037-230500-
   Northeast Minnesota

CITY           SKY/WX    TMP DP  RH WIND       PRES   REMARKS
DULUTH         CLOUDY    33  31  92 SE13      29.54F FOG     WCI  24
ELY            CLOUDY    32  30  93 SE6       29.54F FOG     WCI  26
HIBBING        CLOUDY    34  30  85 SE9       29.51F FOG     WCI  27
EVELETH        CLOUDY    32  32 100 SE8       29.53F FOG     WCI  25
DULUTH HARBOR  CLOUDY    36  32  87 CALM      29.59F
TWO HARBORS    CLOUDY    37  32  81 SE7       29.57F
SILVER BAY     CLOUDY    36  32  87 SE3       29.58F FOG
GRAND MARAIS     N/A     38  34  85 S9        29.64F
G MARAIS ARPRT CLOUDY    30  28  93 SE5       29.61S VSB 1/4 WCI  25
$$
MNZ029>031-032-039>041-046>048-054>057-064-230500-
   West Central Minnesota

CITY           SKY/WX    TMP DP  RH WIND       PRES   REMARKS
FERGUS FALLS   CLOUDY    34  34 100 SE14      29.42F FOG     WCI  24
WHEATON        FOG       30  30 100 SE14      29.41F VSB 1   WCI  20
MORRIS         FOG       34  34 100 SE13      29.40F VSB 3/4 WCI  25
ALEXANDRIA     FOG       34  33  96 SE13      29.44F VSB 3/4 WCI  25
ELBOW LAKE       N/A     33  33 100 SE13      29.40F FOG     WCI  24
WADENA         CLOUDY    32  30  93 SE12      29.43F FOG     WCI  23
GLENWOOD       FOG       34  34 100 SE10      29.43F VSB 1/2 WCI  26
APPLETON       CLOUDY    36  34  93 SE8       29.41F FOG
BENSON         CLOUDY    36  34  93 S13       29.42F FOG
ORTONVILLE     CLOUDY    34  30  86 SE7       29.39F FOG     WCI  28
MADISON        MOCLDY    41  36  81 S9        29.40F
WILLMAR        FAIR      36  34  93 SE15      29.45F FOG
$$
MNZ033>034-036-042>043-049>051-058-059-230500-
   Central Minnesota

CITY           SKY/WX    TMP DP  RH WIND       PRES   REMARKS
ST CLOUD       FOG       35  34  96 SE9       29.50F VSB 1/4 WCI  28
SAUK CENTRE    FOG       33  33 100 SE13      29.46F VSB 1/2 WCI  24
PAYNESVILLE    CLOUDY    33  33 100 E10       29.47F FOG     WCI  25
AITKIN         HAZE      36  30  80 SE8       29.48F VSB 1
PINE RIVER     CLOUDY    32  32 100 SE10      29.51F FOG     WCI  24
BRAINERD       CLOUDY    31  31 100 SE9       29.48F FOG     WCI  23
STAPLES        FOG       30  30 100 SE12      29.45F VSB 1   WCI  21
LONG PRAIRIE   FOG       32  32 100 SE9G21    29.46F VSB 1/2 WCI  24
LITTLE FALLS   FOG       32  32 100 SE9       29.50R VSB 1/2 WCI  24
LITCHFIELD     CLOUDY    37  37 100 SE6       29.49S FOG
BUFFALO        CLOUDY    36  35  95 E7        29.51F FOG
MAPLE LAKE     FOG       37  37  99 SE6       29.51F VSB 1
$$
MNZ037-044-045-052-053-230500-
   East Central Minnesota

CITY           SKY/WX    TMP DP  RH WIND       PRES   REMARKS
PRINCETON      FOG       36  36 100 SE6       29.52F VSB 1/2
MORA           FOG       32  32 100 SE5       29.54F VSB 3/4 WCI  27
CAMBRIDGE      HAZE      37  30  75 SE5       29.51F VSB 1
RUSH CITY      CLOUDY    35  34  96 SE7       29.54F FOG     WCI  29
MOOSE LAKE     CLOUDY    32  32 100 CALM      29.53F FOG
HINCKLEY       CLOUDY    34  34 100 SE7       29.56F FOG     WCI  28
CLOQUET        CLOUDY    34  30  86 SE7       29.54F FOG     WCI  28
MCGREGOR       CLOUDY    32  32 100 SE13      29.50F VSB 1/2 WCI  22
$$
MNZ071>073-080-081-089-090-097-098-230500-
   Southwest Minnesota

CITY           SKY/WX    TMP DP  RH WIND       PRES   REMARKS
MONTEVIDEO     MOCLDY    36  36 100 S7        29.43F FOG
GRANITE FALLS  MOCLDY    35  33  92 SE8       29.45F WCI  29
CANBY          MOCLDY    41  35  80 SW20G26   29.40F
MARSHALL       MOCLDY    43  36  75 SW21G29   29.43S
REDWOOD FALLS  MOCLDY    37  35  92 S8        29.46F FOG
OLIVIA         MOCLDY    36  34  93 SE9       29.45F FOG
PIPESTONE      CLOUDY    39  37  93 SW12      29.45S FOG
WINDOM         CLOUDY    45  43  93 S17G24    29.48S FOG
WORTHINGTON    CLOUDY    45  45 100 S21G31    29.48F
JACKSON        CLOUDY    46  43  87 S16G25    29.50F
TRACY          MOCLDY    43  40  89 SW21G28   29.44F
SLAYTON        CLOUDY    39  39  99 S22       29.46F FOG
$$
MNZ065>067-074>077-082>085-091>093-230500-
   South Central Minnesota

CITY           SKY/WX    TMP DP  RH WIND       PRES   REMARKS
MANKATO        CLOUDY    46  43  87 S15G23    29.51S
NEW ULM        MOCLDY    45  45 100 S17       29.47F FOG
ST JAMES       CLOUDY    46  45  93 S23G29    29.49S
FAIRMONT       CLOUDY    46  43  87 S17       29.52S
GLENCOE        CLOUDY    40  39  99 SE7       29.49S FOG
FARIBAULT      CLOUDY    43  39  87 SE10      29.54F FOG
OWATONNA       PTCLDY    45  41  87 S14       29.55F FOG
WASECA         CLOUDY    43  39  87 S20       29.54F FOG
ALBERT LEA     FOG       46  46 100 S10G16    29.56F VSB 1
$$
MNZ078>079-086>088-094>096-230500-
   Southeast Minnesota

CITY           SKY/WX    TMP DP  RH WIND       PRES   REMARKS
ROCHESTER      FOG       46  45  96 S18       29.59F VSB 1/4
RED WING         N/A     39  37  93 SE6       29.58F FOG
STANTON        CLOUDY    42  40  90 S9        29.53F FOG
DODGE CENTER   FOG       45  45 100 S18G24    29.57F VSB 1/4
WINONA         CLOUDY    39  37  93 SE7       29.63F FOG
AUSTIN         DRZL/FOG  45  45 100 S10G17    29.59F VSB 1/4
PRESTON        FOG       46  45  97 S14       29.62F VSB 1/4
$$
ABBREVIATIONS USED IN REMARKS
   TC - TEMPERATURES IN CELSIUS
  WCI - WIND CHILL INDEX
   HX - HEAT INDEX
  VSB - VISIBILITY
$$



USA.gov is the U.S. government's official web portal to all federal, state and local government web resources and services.